GW0552 Weather Reports


Display with metric or nautical units.
time (UTC)temp
F
wind
direction
speed
MPH
gust
MPH
rain 1hr
in
rain 24hr
in
rain mn
in
humidity
%
barometer
mb
20260905224300 81 71 0.0 0.0 0.00 0.03 0.03 88 1008.3
20260905223755 81 71 0.0 0.0 0.00 0.03 0.03 88 1008.3
20260905223252 81 70 0.0 0.0 0.00 0.03 0.03 87 1008.3
20260905222747 81 70 0.0 0.0 0.00 0.03 0.03 87 1008.3
20260905222246 82 69 0.0 0.0 0.00 0.03 0.03 85 1008.4
20260905221742 82 69 0.0 0.0 0.00 0.03 0.03 85 1008.5
20260905221239 82 69 0.0 0.0 0.00 0.03 0.03 85 1008.3
20260905220734 82 69 0.0 0.0 0.00 0.03 0.03 86 1008.3
20260905220231 82 70 0.0 0.0 0.00 0.03 0.03 83 1008.3
20260905215730 83 68 1.0 1.0 0.00 0.03 0.03 82 1008.4
20260905215226 83 68 0.0 0.0 0.00 0.03 0.03 81 1008.3
20260905214721 83 40 2.0 2.0 0.00 0.03 0.03 78 1008.5
20260905214217 84 55 1.0 2.0 0.00 0.03 0.03 79 1008.4
20260905213712 84 14 1.0 2.0 0.00 0.03 0.03 75 1008.4
20260905213208 85 60 1.0 1.0 0.00 0.03 0.03 74 1008.2
20260905212703 85 47 3.0 3.0 0.00 0.03 0.03 75 1008.0
20260905212202 85 36 3.0 3.0 0.00 0.03 0.03 74 1008.3
20260905211656 85 78 2.0 2.0 0.00 0.03 0.03 75 1008.3
20260905211152 85 59 1.0 2.0 0.00 0.03 0.03 74 1008.5
20260905210648 85 67 0.0 0.0 0.00 0.03 0.03 75 1008.3
20260905210143 86 102 2.0 2.0 0.00 0.03 0.03 74 1008.3
20260905205642 85 61 2.0 2.0 0.00 0.03 0.03 74 1008.3
20260905205142 84 53 2.0 2.0 0.00 0.03 0.03 77 1008.1
20260905204641 84 100 2.0 2.0 0.00 0.03 0.03 75 1008.2
20260905204136 84 44 3.0 3.0 0.00 0.03 0.03 80 1008.2
20260905203631 84 81 1.0 2.0 0.00 0.03 0.03 79 1008.2
20260905203126 84 82 1.0 2.0 0.00 0.03 0.03 84 1008.3
20260905202622 83 72 0.0 1.0 0.00 0.03 0.03 84 1008.5
20260905202117 82 75 1.0 2.0 0.00 0.03 0.03 88 1008.1
20260905201613 82 79 1.0 2.0 0.00 0.03 0.03 87 1008.5
20260905201112 81 69 0.0 0.0 0.00 0.03 0.03 84 1008.8
20260905200608 82 64 0.0 0.0 0.12 0.03 0.03 82 1008.7
20260905195556 84 40 1.0 2.0 0.00 0.01 0.01 72 1008.9
20260905195051 85 133 5.0 6.0 0.00 0.01 0.01 70 1008.8
20260905194551 85 67 1.0 2.0 0.00 0.01 0.01 70 1008.9
20260905194050 86 97 2.0 3.0 0.00 0.01 0.01 67 1008.9
20260905193545 86 276 4.0 5.0 0.00 0.01 0.01 66 1008.8
20260905193041 86 85 1.0 2.0 0.00 0.01 0.01 67 1008.9
20260905192536 85 31 1.0 1.0 0.00 0.01 0.01 67 1008.9
20260905192032 86 260 5.0 5.0 0.00 0.01 0.01 67 1009.0
20260905191530 87 314 4.0 5.0 0.00 0.01 0.01 64 1009.2
20260905191030 87 32 2.0 2.0 0.00 0.01 0.01 68 1009.2
20260905190528 87 114 0.0 0.0 0.00 0.01 0.01 68 1009.1
20260905190028 87 72 1.0 1.0 0.00 0.01 0.01 70 1009.1
20260905185527 86 55 1.0 1.0 0.00 0.01 0.01 68 1009.3
20260905185026 86 249 4.0 5.0 0.00 0.01 0.01 69 1009.5
20260905184521 85 249 4.0 5.0 0.00 0.01 0.01 70 1009.5
20260905184019 85 337 1.0 2.0 0.00 0.01 0.01 70 1009.7
20260905183514 85 290 3.0 3.0 0.00 0.01 0.01 72 1009.7
20260905183009 84 274 3.0 3.0 0.00 0.01 0.01 74 1009.9
20260905182503 84 283 5.0 6.0 0.00 0.01 0.01 73 1009.8
20260905181957 84 68 1.0 1.0 0.00 0.01 0.01 73 1010.1
20260905181452 84 184 3.0 5.0 0.00 0.01 0.01 72 1009.8
20260905180951 85 68 1.0 1.0 0.00 0.01 0.01 73 1009.8
20260905180446 84 19 3.0 3.0 0.00 0.01 0.01 74 1009.9
20260905175942 84 244 4.0 5.0 0.00 0.01 0.01 77 1009.9
20260905175441 84 114 0.0 1.0 0.00 0.01 0.01 77 1009.9
20260905174936 83 183 4.0 6.0 0.00 0.01 0.01 76 1010.0
20260905174432 83 163 3.0 5.0 0.00 0.01 0.01 77 1009.9
20260905173927 82 20 4.0 5.0 0.00 0.01 0.01 82 1009.9
20260905173424 82 56 3.0 3.0 0.00 0.01 0.01 80 1010.2
20260905172919 82 92 1.0 2.0 0.00 0.01 0.01 80 1010.4
20260905172417 82 239 5.0 6.0 0.00 0.01 0.01 82 1010.3
20260905171913 81 221 2.0 2.0 0.00 0.01 0.01 82 1010.5
20260905171409 81 221 4.0 6.0 0.00 0.01 0.01 83 1010.4
20260905170906 82 265 6.0 7.0 0.00 0.01 0.01 83 1010.5
20260905170401 82 64 1.0 1.0 0.00 0.01 0.01 82 1010.5
20260905165901 82 176 3.0 3.0 0.00 0.01 0.01 84 1010.4
20260905165355 82 37 3.0 6.0 0.00 0.01 0.01 82 1010.3
20260905164850 82 249 6.0 7.0 0.00 0.01 0.01 81 1010.7
20260905164345 82 249 6.0 7.0 0.00 0.01 0.01 81 1010.7
20260905163841 82 165 1.0 2.0 0.00 0.01 0.01 83 1010.5
20260905163337 82 359 3.0 5.0 0.00 0.01 0.01 82 1010.7
20260905162832 80 34 1.0 1.0 0.00 0.01 0.01 85 1010.7
20260905162326 80 65 2.0 2.0 0.00 0.01 0.01 85 1010.6
20260905161827 80 74 2.0 2.0 0.00 0.01 0.01 86 1010.3
20260905161327 79 67 0.0 0.0 0.00 0.01 0.01 87 1010.5
20260905160825 78 62 1.0 1.0 0.00 0.01 0.01 90 1010.5
20260905160319 78 62 1.0 1.0 0.00 0.01 0.01 90 1010.5
20260905155813 78 61 0.0 1.0 0.00 0.01 0.01 91 1010.3
20260905155307 77 60 0.0 0.0 0.00 0.01 0.01 91 1010.1
20260905154801 77 70 4.0 5.0 0.00 0.01 0.01 90 1010.2
20260905154257 77 86 3.0 3.0 0.00 0.01 0.01 91 1010.4
20260905153752 76 66 1.0 1.0 0.00 0.01 0.01 91 1010.4
20260905153248 76 55 2.0 2.0 0.00 0.01 0.01 91 1010.2
20260905152742 76 73 1.0 2.0 0.00 0.01 0.01 92 1010.7
20260905152237 76 18 3.0 3.0 0.00 0.01 0.01 92 1010.9
20260905151736 75 63 3.0 3.0 0.00 0.01 0.01 93 1010.2
20260905151232 75 85 4.0 5.0 0.00 0.01 0.01 94 1009.8
20260905150726 75 72 3.0 3.0 0.00 0.01 0.01 95 1010.3
20260905150225 75 66 1.0 1.0 0.00 0.01 0.01 95 1010.8
20260905145723 75 59 0.0 0.0 0.00 0.01 0.01 95 1011.2
20260905145218 75 62 2.0 2.0 0.00 0.01 0.01 94 1011.1
20260905144717 75 77 2.0 2.0 0.00 0.01 0.01 94 1011.1
20260905144212 75 70 1.0 2.0 0.00 0.01 0.01 95 1010.7
20260905143712 75 63 3.0 3.0 0.00 0.01 0.01 95 1010.8
20260905143212 75 62 0.0 0.0 0.00 0.01 0.01 97 1011.3
20260905142705 74 59 0.0 0.0 0.00 0.01 0.01 97 1011.6
20260905142205 74 64 0.0 0.0 0.00 0.01 0.01 97 1011.4
20260905141701 74 58 2.0 2.0 0.00 0.01 0.01 97 1010.9
20260905141156 74 65 1.0 1.0 0.00 0.01 0.01 96 1011.1
20260905140651 74 67 1.0 2.0 0.00 0.01 0.01 97 1011.0
20260905140145 74 67 1.0 1.0 0.00 0.01 0.01 96 1011.4
20260905135640 73 40 1.0 1.0 0.00 0.01 0.01 95 1011.3
20260905135136 74 149 0.0 1.0 0.00 0.01 0.01 95 1011.7
20260905134630 74 60 0.0 0.0 0.00 0.01 0.01 97 1011.6
20260905134129 74 2 2.0 2.0 0.00 0.01 0.01 95 1011.5
20260905133625 73 77 2.0 3.0 0.00 0.01 0.01 96 1011.9
20260905133125 73 44 2.0 2.0 0.00 0.01 0.01 98 1011.9
20260905132624 73 75 0.0 0.0 0.00 0.01 0.01 99 1011.8
20260905132119 73 17 0.0 0.0 0.00 0.01 0.01 99 1011.8
20260905131614 72 50 0.0 0.0 0.00 0.01 0.01 99 1012.1
20260905131110 72 71 1.0 1.0 0.00 0.01 0.01 99 1011.9
20260905130609 72 234 4.0 5.0 0.00 0.01 0.01 99 1012.0
20260905125603 73 61 0.0 0.0 0.00 0.01 0.01 99 1012.0
20260905125059 73 68 0.0 0.0 0.00 0.01 0.01 99 1011.9
20260905124555 73 33 1.0 1.0 0.00 0.01 0.01 99 1012.1
20260905124051 73 56 1.0 1.0 0.00 0.01 0.01 99 1011.9
20260905123546 73 125 3.0 3.0 0.00 0.01 0.01 99 1011.7
20260905123043 73 43 1.0 1.0 0.00 0.01 0.01 99 1011.8
20260905122543 73 40 1.0 1.0 0.00 0.01 0.01 99 1011.8
20260905122037 73 38 0.0 0.0 0.00 0.01 0.01 99 1011.7
20260905121532 73 214 4.0 6.0 0.00 0.01 0.01 99 1011.6
20260905121027 73 83 1.0 1.0 0.00 0.01 0.01 99 1011.6
20260905120526 73 260 2.0 2.0 0.00 0.01 0.01 99 1011.9
20260905120022 73 304 3.0 3.0 0.00 0.01 0.01 99 1011.6
20260905115520 73 48 0.0 0.0 0.00 0.01 0.01 99 1010.6
20260905115016 73 48 0.0 0.0 0.00 0.01 0.01 99 1010.3
20260905114515 73 41 0.0 0.0 0.00 0.01 0.01 99 1010.3
20260905114014 73 49 0.0 0.0 0.00 0.01 0.01 99 1010.4
20260905113509 73 58 1.0 2.0 0.00 0.01 0.01 99 1010.2
20260905113005 73 65 0.0 1.0 0.00 0.01 0.01 99 1009.9
20260905112500 73 294 4.0 5.0 0.00 0.01 0.01 99 1010.2
20260905111955 71 258 6.0 8.0 0.00 0.01 0.01 99 1010.0
20260905111450 71 50 0.0 0.0 0.00 0.01 0.01 99 1009.2
20260905110949 71 61 0.0 0.0 0.00 0.01 0.01 99 1009.0
20260905110449 71 64 0.0 0.0 0.00 0.01 0.01 99 1009.1
20260905105948 71 63 0.0 0.0 0.00 0.01 0.01 99 1008.9
20260905105443 71 63 0.0 0.0 0.00 0.01 0.01 99 1009.3
20260905104942 71 63 0.0 0.0 0.00 0.01 0.01 99 1009.1
20260905104439 71 66 0.0 0.0 0.00 0.01 0.01 99 1009.1
20260905103933 71 58 0.0 0.0 0.00 0.01 0.01 99 1009.1
20260905103428 71 66 0.0 1.0 0.00 0.01 0.01 99 1009.0
20260905102924 71 65 1.0 1.0 0.00 0.01 0.01 99 1008.9
20260905102420 71 63 2.0 2.0 0.00 0.01 0.01 99 1009.3
20260905101915 71 61 0.0 0.0 0.00 0.01 0.01 99 1009.1
20260905101414 71 66 0.0 0.0 0.00 0.01 0.01 99 1009.2
20260905100909 71 61 0.0 0.0 0.00 0.01 0.01 99 1009.2
20260905100405 71 53 0.0 0.0 0.00 0.01 0.01 99 1009.3
20260905095904 71 52 0.0 0.0 0.00 0.01 0.01 99 1009.3
20260905095358 71 52 0.0 0.0 0.00 0.01 0.01 99 1009.2
20260905094853 72 59 0.0 0.0 0.00 0.01 0.01 99 1008.9
20260905094349 72 78 2.0 2.0 0.07 0.01 0.01 99 1008.9
20260905093847 72 63 2.0 2.0 0.07 0.01 0.01 99 1008.8
20260905093343 72 77 4.0 5.0 0.07 0.01 0.01 99 1008.8
20260905092839 72 76 2.0 2.0 0.00 0.00 0.00 99 1009.2
20260905092338 72 61 2.0 2.0 0.00 0.00 0.00 99 1009.3
20260905091834 72 65 1.0 1.0 0.00 0.00 0.00 99 1009.3
20260905091333 72 70 1.0 2.0 0.00 0.00 0.00 99 1009.4
20260905090832 71 49 0.0 0.0 0.00 0.00 0.00 99 1009.8
20260905090323 71 51 0.0 0.0 0.00 0.00 0.00 99 1009.3
20260905085822 70 45 0.0 0.0 0.00 0.00 0.00 99 1009.3
20260905085316 70 37 0.0 0.0 0.00 0.00 0.00 99 1008.9
20260905084812 71 68 0.0 0.0 0.00 0.00 0.00 99 1009.1
20260905084311 70 55 0.0 0.0 0.00 0.00 0.00 99 1009.0
20260905083806 70 60 0.0 0.0 0.00 0.00 0.00 99 1009.2
20260905083302 70 60 0.0 0.0 0.00 0.00 0.00 99 1009.0
20260905082757 70 48 0.0 0.0 0.00 0.00 0.00 99 1009.0
20260905082254 71 65 0.0 0.0 0.00 0.00 0.00 99 1009.0
20260905081753 71 65 0.0 0.0 0.00 0.00 0.00 99 1008.8
20260905081249 70 61 0.0 0.0 0.00 0.00 0.00 99 1009.1
20260905080743 71 61 0.0 0.0 0.00 0.00 0.00 99 1008.9
20260905080243 71 61 0.0 0.0 0.00 0.00 0.00 99 1009.1
20260905075741 71 61 0.0 0.0 0.00 0.00 0.00 99 1009.2
20260905075241 71 62 0.0 0.0 0.00 0.00 0.00 99 1009.0
20260905074740 71 74 0.0 0.0 0.00 0.00 0.00 99 1009.1
20260905074236 71 65 0.0 0.0 0.00 0.00 0.00 99 1009.3
20260905073731 71 66 0.0 0.0 0.00 0.00 0.00 99 1009.2
20260905073227 71 65 0.0 0.0 0.00 0.00 0.00 99 1009.4
20260905072726 71 65 0.0 0.0 0.00 0.00 0.00 99 1009.4
20260905072221 71 60 0.0 0.0 0.00 0.00 0.00 99 1009.4
20260905071718 71 60 0.0 0.0 0.00 0.00 0.00 99 1009.5
20260905071214 71 60 0.0 0.0 0.00 0.00 0.00 99 1009.5
20260905070709 71 60 0.0 0.0 0.00 0.00 0.00 99 1009.8
20260905070205 71 60 0.0 0.0 0.00 0.00 0.00 99 1009.9
20260905065703 71 60 0.0 0.0 0.00 0.00 0.00 99 1009.8
20260905065157 71 65 0.0 0.0 0.00 0.00 0.00 99 1010.0
20260905064653 71 65 0.0 0.0 0.00 0.00 0.00 99 1010.1
20260905064149 71 66 0.0 0.0 0.00 0.00 0.00 99 1010.2
20260905063647 71 66 0.0 0.0 0.00 0.00 0.00 99 1010.1
20260905063143 71 64 0.0 0.0 0.00 0.00 0.00 99 1010.2
20260905062639 71 64 0.0 0.0 0.00 0.00 0.00 99 1010.5
20260905062138 71 66 0.0 0.0 0.00 0.00 0.00 99 1010.5
20260905061633 71 62 0.0 0.0 0.00 0.00 0.00 99 1010.6
20260905061132 71 55 0.0 0.0 0.00 0.00 0.00 99 1010.5
20260905060628 72 55 0.0 0.0 0.00 0.00 0.00 99 1010.5
20260905060124 72 62 0.0 0.0 0.00 0.00 0.00 99 1010.9
20260905055622 72 64 0.0 0.0 0.00 0.00 0.00 99 1010.7
20260905055118 72 64 0.0 0.0 0.00 0.00 0.00 99 1010.9
20260905054614 72 75 1.0 1.0 0.00 0.00 0.00 99 1010.9
20260905054109 72 70 1.0 1.0 0.00 0.00 0.00 99 1010.8
20260905053608 72 79 2.0 2.0 0.00 0.00 0.00 99 1011.0
20260905053104 72 76 1.0 2.0 0.00 0.00 0.00 99 1011.2
20260905052603 72 59 0.0 0.0 0.00 0.00 0.00 99 1011.2
20260905052058 72 59 0.0 0.0 0.00 0.00 0.00 99 1011.3
20260905051554 72 58 0.0 0.0 0.00 0.00 0.00 99 1011.3
20260905051050 72 59 0.0 0.0 0.00 0.00 0.00 99 1011.3
20260905050546 72 59 0.0 0.0 0.00 0.00 0.00 99 1011.2
20260905050043 72 59 0.0 0.0 0.00 0.00 0.00 99 1011.4
20260905045537 72 59 0.0 0.0 0.00 0.00 0.00 99 1011.2
20260905045033 72 59 0.0 0.0 0.00 0.00 0.00 99 1011.5
20260905044532 72 59 0.0 0.0 0.00 0.00 0.00 99 1011.3
20260905044027 72 65 0.0 0.0 0.00 0.00 0.00 99 1011.3
20260905043526 72 65 0.0 0.0 0.00 0.00 0.00 99 1011.5
20260905043022 73 65 0.0 0.0 0.00 0.00 0.00 99 1011.4
20260905042520 72 65 0.0 0.0 0.00 0.00 0.00 99 1011.3
20260905042016 73 65 0.0 0.0 0.00 0.00 0.00 99 1011.3
20260905041511 73 65 0.0 0.0 0.00 0.00 0.00 99 1011.3
20260905041007 73 65 0.0 0.0 0.00 0.00 0.00 99 1011.3
20260905040506 73 65 0.0 0.0 0.00 0.00 0.00 99 1011.1
20260905040005 73 65 0.0 0.0 0.00 0.00 0.00 99 1011.2
20260905035500 73 65 0.0 0.0 0.00 0.00 0.00 99 1011.2
20260905034957 73 66 0.0 0.0 0.00 0.00 0.00 99 1010.9
20260905034458 73 63 0.0 0.0 0.00 0.00 0.00 99 1011.0
20260905033956 73 63 0.0 0.0 0.00 0.00 0.00 99 1011.0
20260905033451 73 62 0.0 0.0 0.00 0.00 0.00 99 1011.1
20260905032946 73 68 0.0 0.0 0.00 0.00 0.00 99 1010.9
20260905032442 73 68 0.0 0.0 0.00 0.00 0.00 99 1010.8
20260905031936 73 67 0.0 0.0 0.00 0.00 0.00 99 1011.0
20260905031432 73 68 0.0 0.0 0.00 0.00 0.00 99 1010.9
20260905030927 73 64 0.0 0.0 0.00 0.00 0.00 99 1011.2
20260905030423 74 64 0.0 0.0 0.00 0.00 0.00 99 1011.2
20260905025921 73 64 0.0 0.0 0.00 0.00 0.00 98 1011.0
20260905025417 74 64 0.0 0.0 0.00 0.00 0.00 99 1011.1
20260905024914 74 64 0.0 0.0 0.00 0.00 0.00 99 1011.2
20260905024408 74 64 0.0 0.0 0.00 0.00 0.00 99 1011.1
20260905023904 74 64 0.0 0.0 0.00 0.00 0.00 99 1011.1
20260905023359 74 64 0.0 0.0 0.00 0.00 0.00 98 1010.9
20260905022857 74 64 0.0 0.0 0.00 0.00 0.00 98 1010.8
20260905022348 74 63 0.0 0.0 0.00 0.00 0.00 98 1011.0
20260905021848 74 64 0.0 0.0 0.00 0.00 0.00 98 1011.2
20260905021343 75 69 0.0 0.0 0.00 0.00 0.00 99 1011.4
20260905020838 75 67 0.0 0.0 0.00 0.00 0.00 99 1011.2
20260905020333 75 58 0.0 0.0 0.00 0.00 0.00 98 1011.3
20260905015832 75 61 0.0 0.0 0.00 0.00 0.00 98 1011.3
20260905015331 75 66 0.0 0.0 0.00 0.00 0.00 98 1011.1
20260905014831 75 56 0.0 0.0 0.00 0.00 0.00 98 1011.2
20260905014327 75 55 0.0 0.0 0.00 0.00 0.00 98 1011.0
20260905013821 75 54 0.0 0.0 0.00 0.00 0.00 98 1011.0
20260905013318 75 27 0.0 0.0 0.00 0.00 0.00 98 1011.1
20260905012813 75 63 0.0 0.0 0.00 0.00 0.00 97 1011.0
20260905012309 75 64 0.0 0.0 0.00 0.00 0.00 97 1010.8
20260905011805 76 64 0.0 0.0 0.00 0.00 0.00 97 1010.7
20260905011300 76 63 0.0 0.0 0.00 0.00 0.00 96 1011.0
20260905010754 76 62 0.0 0.0 0.00 0.00 0.00 95 1010.8
20260905010250 76 63 0.0 0.0 0.00 0.00 0.00 95 1010.6
20260905005747 76 63 0.0 0.0 0.00 0.00 0.00 96 1010.5
20260905005242 76 59 0.0 0.0 0.00 0.00 0.00 96 1010.5
20260905004742 76 46 0.0 0.0 0.00 0.00 0.00 95 1010.6
20260905004242 76 46 0.0 0.0 0.00 0.00 0.00 96 1010.8
20260905003742 76 37 0.0 0.0 0.00 0.00 0.00 96 1010.5
20260905003237 77 37 0.0 0.0 0.00 0.00 0.00 96 1010.3
20260905002733 77 33 0.0 0.0 0.00 0.00 0.00 95 1010.0
20260905002228 77 35 0.0 0.0 0.00 0.00 0.00 94 1009.3
20260905001723 77 48 0.0 0.0 0.00 0.00 0.00 93 1009.3
20260905001222 77 47 0.0 0.0 0.00 0.00 0.00 93 1009.2
20260905000718 78 48 0.0 0.0 0.00 0.00 0.00 91 1009.2
20260905000213 78 47 0.0 0.0 0.00 0.00 0.00 92 1009.1
20260904235708 79 46 0.0 0.0 0.00 0.00 0.00 92 1008.9
20260904235203 80 48 0.0 0.0 0.00 0.00 0.00 91 1009.1
20260904234657 80 66 0.0 0.0 0.00 0.00 0.00 89 1009.1
20260904234153 79 70 1.0 1.0 0.00 0.00 0.00 89 1009.3
20260904233649 79 69 0.0 1.0 0.00 0.00 0.00 89 1009.1
20260904233144 79 67 3.0 3.0 0.00 0.00 0.00 90 1008.9
20260904232641 79 66 0.0 1.0 0.00 0.00 0.00 89 1009.3
20260904232137 79 88 2.0 2.0 0.00 0.00 0.00 89 1009.3
20260904231632 79 83 2.0 2.0 0.00 0.00 0.00 89 1009.5
20260904231127 79 70 0.0 0.0 0.00 0.00 0.00 87 1009.5
20260904230626 79 54 0.0 0.0 0.00 0.00 0.00 86 1010.0
20260904230122 80 75 1.0 1.0 0.00 0.00 0.00 87 1009.8
20260904225619 80 68 0.0 0.0 0.00 0.00 0.00 84 1010.0
20260904225115 81 28 1.0 1.0 0.00 0.00 0.00 86 1010.2